Wind_Speed
16 13 12 9 14 16 16 14 12 14 16 20 25 27 30 32 34 32 31 32 37 40 45 50 53 55 53 47 47 46 45 44 42 44 48 48 53 52 53 54 49 48 49 50
17 16 14 17 19 17 15 11 13 14 17 21 25 26 33 34 33 37 34 38 41 43 48 53 56 55 56 54 53 53 53 54 55 54 50 47 50 54 54 54 54 51 49 48
19 18 18 18 19 13 12 13 14 17 18 23 26 28 30 32 35 35 36 39 45 50 55 57 59 58 58 61 66 70 71 68 70 65 59 56 49 52 55 58 55 54 52 51
21 19 16 16 13 11 15 14 17 18 21 25 29 30 30 32 33 33 35 40 44 51 57 59 65 66 67 67 67 69 71 71 78 71 77 71 66 57 45 54 58 56 53 52
20 15 10 15 15 14 15 18 17 20 24 25 30 31 32 33 32 33 36 40 45 51 56 62 67 69 65 64 67 74 74 74 72 74 71 67 57 47 39 44 51 57 54 52
17 14 14 14 17 16 19 21 22 26 27 30 30 31 36 30 31 37 41 47 53 59 60 62 60 59 65 70 72 68 65 69 63 60 59 59 51 38 47 53 51 50 54 52
17 14 16 14 14 18 24 27 28 30 33 30 26 33 31 34 37 36 35 39 44 49 55 57 60 63 65 66 67 62 55 59 61 52 55 52 50 54 47 48 49 43 51 52
17 17 16 18 19 21 25 30 32 36 37 37 34 34 35 34 38 41 43 46 47 46 45 47 51 54 54 52 54 57 56 55 52 52 42 38 33 32 31 37 41 38 39 50
18 17 20 22 22 26 29 30 34 38 39 40 38 37 36 35 41 45 47 49 48 47 43 40 39 41 42 48 52 51 50 49 46 43 50 34 37 36 33 38 36 31 39 46
18 16 23 24 27 31 34 33 34 36 40 40 38 37 39 37 40 46 48 47 46 42 42 39 37 38 42 47 49 50 49 45 44 40 41 38 39 36 33 34 34 35 33 34
19 24 22 27 32 35 33 35 38 38 37 38 41 39 39 42 45 46 46 45 42 37 36 37 40 37 42 46 49 46 46 47 47 44 44 45 40 38 38 37 35 32 32 32
26 32 31 29 32 35 36 34 34 33 34 36 38 41 40 46 46 46 45 41 37 35 38 43 40 42 43 47 50 48 46 43 43 42 42 45 47 37 35 35 37 36 35 33
28 31 33 29 34 34 31 28 31 36 36 36 41 41 45 48 47 45 42 41 40 39 40 44 44 47 47 48 53 55 49 45 43 44 40 40 44 42 37 38 36 29 29 32
30 31 32 32 31 33 27 30 33 37 39 40 40 44 44 45 43 42 41 44 44 43 46 47 46 46 48 50 54 56 54 49 50 46 40 33 33 36 37 40 39 40 36 33
28 29 28 28 30 31 28 33 34 35 36 42 43 40 41 40 42 43 45 45 47 49 49 48 46 45 49 52 57 57 51 53 47 38 31 26 25 26 30 33 35 38 37 32
22 23 24 22 28 30 29 36 35 35 39 41 39 36 37 39 41 44 47 48 48 46 46 46 46 46 48 51 59 52 45 39 33 22 20 19 18 20 20 22 26 21 22 24
25 23 25 22 26 27 31 35 35 35 37 37 35 33 35 38 41 45 46 48 48 48 47 46 42 43 46 52 47 37 36 25 17 18 16 15 14 19 18 19 13 9 8 13
26 28 31 32 32 32 32 33 35 36 36 35 36 38 39 41 44 47 49 48 47 44 43 44 43 42 44 45 32 30 20 17 16 15 15 15 12 8 6 7 4 4 3 2
25 27 32 34 35 34 33 35 35 33 36 34 35 37 38 42 45 44 45 46 44 41 40 41 39 40 45 32 24 18 14 15 13 12 11 11 12 12 11 10 8 6 6 9
27 31 31 34 37 36 36 37 35 37 38 39 38 41 44 46 47 43 41 40 38 40 37 37 34 41 36 15 15 9 8 9 12 11 11 11 10 10 9 9 11 10 10 14
32 34 34 33 36 38 40 41 38 40 39 38 41 41 43 46 46 43 39 37 37 36 34 30 34 31 13 9 5 5 6 5 6 8 8 8 9 7 9 12 13 14 17 16
33 35 36 37 38 40 41 40 40 39 40 43 41 44 46 46 42 38 38 36 35 32 26 26 27 15 8 4 1 4 4 4 4 5 6 7 12 15 18 15 14 12 11 12
33 35 38 40 39 40 39 40 39 41 43 42 43 47 49 43 39 39 37 35 32 26 19 20 14 7 5 1 2 2 4 6 8 8 12 15 14 16 14 14 15 13 10 9
30 34 37 38 36 38 37 39 41 41 41 41 45 45 40 40 41 41 37 31 24 15 14 11 6 5 4 2 1 4 8 11 10 12 15 15 18 18 21 19 18 17 16 14
33 35 36 35 35 35 35 40 42 39 40 44 44 41 40 41 40 38 31 20 11 9 5 2 3 6 6 5 4 9 12 13 11 14 19 22 24 22 18 15 14 14 14 12
34 36 36 34 33 36 38 38 35 37 40 42 39 36 39 36 39 32 15 6 6 2 3 4 8 10 10 7 9 11 12 14 19 23 25 22 19 17 19 20 19 17 14 9
Wind_Direction
252 248 250 240 241 238 239 245 267 298 318 317 307 297 297 299 301 305 294 292 295 301 307 308 312 313 313 309 305 297 293 286 278 279 282 284 280 276 276 274 268 267 267 268
256 259 250 236 232 237 248 261 278 289 283 283 288 299 299 305 302 304 294 299 304 304 305 313 314 312 310 311 309 304 305 305 297 295 290 285 289 278 273 269 269 266 264 264
256 253 244 239 235 242 261 264 269 272 276 284 297 300 307 303 306 303 307 307 307 307 311 309 310 314 314 314 311 311 308 306 305 304 305 302 296 285 276 269 265 263 263 262
250 245 238 240 247 245 257 273 279 290 293 303 309 308 307 306 305 307 300 297 297 297 300 303 304 306 305 305 302 303 308 308 307 304 298 298 300 297 281 270 265 258 257 258
249 245 233 240 248 252 263 270 289 294 297 304 308 311 313 309 307 299 287 283 284 288 293 293 296 298 297 298 302 304 302 302 302 303 302 299 297 285 288 286 267 258 253 254
250 254 249 248 255 266 274 284 290 294 302 306 311 311 309 302 296 287 282 280 282 285 291 292 295 296 297 296 298 299 299 300 302 303 307 292 281 285 293 286 283 268 252 248
239 242 243 246 266 280 282 289 297 299 305 307 308 304 303 301 299 299 295 293 288 289 287 291 294 294 294 295 297 301 301 299 303 306 298 292 270 284 289 288 273 270 256 248
238 245 256 263 267 281 286 293 299 305 310 311 311 306 306 305 302 303 305 306 304 299 293 291 290 290 292 296 297 301 303 304 302 303 306 293 280 278 283 285 278 274 265 256
240 254 271 277 291 290 293 304 306 305 307 307 307 306 303 310 308 305 308 311 312 310 304 296 294 295 299 301 303 305 304 305 301 290 292 286 294 287 285 273 280 280 269 265
253 264 277 288 292 292 299 301 299 300 302 303 304 308 311 310 302 300 309 310 308 307 298 300 297 300 304 310 311 311 310 306 301 290 282 283 285 278 277 272 275 274 275 272
274 276 280 286 285 291 294 297 300 302 301 303 307 307 307 303 300 305 308 315 313 309 302 295 298 308 309 314 313 313 308 306 302 296 289 284 280 280 274 275 278 278 280 278
282 286 287 284 286 289 293 296 295 292 293 296 297 299 303 299 304 311 318 316 312 309 305 304 306 308 312 315 317 315 308 309 307 302 290 282 279 275 275 277 279 281 280 281
292 284 285 284 289 290 291 293 290 291 298 303 301 309 300 304 310 315 315 310 310 304 301 300 304 307 310 313 319 317 310 306 306 306 300 286 279 274 274 275 280 278 279 287
283 284 288 293 295 293 299 299 299 300 304 303 301 301 304 307 311 310 308 307 307 303 298 299 300 302 308 312 315 313 306 305 305 304 302 294 291 279 272 275 277 277 281 285
278 284 285 286 287 290 295 292 293 296 296 295 301 304 305 306 309 308 308 305 303 304 306 305 303 303 307 309 312 312 310 307 306 304 306 302 293 286 277 277 276 274 270 269
274 274 275 279 282 292 295 292 295 297 298 299 306 304 305 309 309 305 304 304 304 304 304 306 306 303 303 308 316 317 318 318 321 321 313 304 302 293 283 273 277 279 269 248
292 284 282 283 287 290 293 292 298 300 302 304 306 305 306 305 304 304 306 306 307 307 309 307 307 304 307 314 317 321 324 329 334 327 322 311 302 297 288 292 295 281 261 249
291 294 297 301 301 298 296 301 303 303 300 306 310 309 312 312 308 307 309 309 307 309 308 307 306 306 311 317 316 329 341 343 340 335 325 329 343 340 350 348 42 24 70 212
290 294 295 294 294 297 298 298 308 308 309 309 309 307 306 303 305 311 309 307 307 308 307 312 312 313 314 316 321 330 336 351 360 22 29 42 50 52 46 42 29 10 341 318
290 290 291 293 296 299 301 308 308 309 313 313 313 313 312 312 310 311 309 307 310 306 313 314 313 314 323 318 328 340 4 30 44 39 33 28 24 20 18 26 2 338 323 300
296 295 300 302 303 308 308 309 311 312 312 312 313 312 307 306 310 311 310 309 307 311 312 315 318 326 332 331 328 19 27 54 24 13 4 18 34 19 348 331 320 301 310 306
294 299 302 304 306 308 306 308 310 310 310 313 312 306 307 310 312 308 308 309 309 311 310 319 326 327 336 321 42 89 61 40 8 6 29 11 347 337 338 346 348 344 354 2
301 302 303 303 306 304 307 304 306 309 311 312 310 310 311 313 310 309 308 306 303 305 312 324 326 322 339 34 124 84 46 23 21 14 1 351 2 20 27 29 26 19 11 7
297 295 293 295 301 301 303 304 308 311 311 310 310 311 313 313 313 311 309 304 296 289 316 326 318 336 122 141 103 65 48 40 19 360 10 29 50 41 32 22 11 360 354 348
294 292 293 296 301 300 303 304 310 311 309 308 311 313 316 315 314 313 311 291 264 288 316 316 343 124 126 89 94 83 62 33 27 41 60 51 39 27 13 356 340 331 331 333
292 291 297 300 299 299 301 304 305 304 305 309 311 314 318 317 315 317 318 267 277 286 147 129 130 113 109 110 99 78 42 45 75 64 50 38 24 9 355 345 341 342 347 358
Height
5857 5858 5860 5859 5860 5860 5859 5859 5859 5858 5858 5858 5855 5854 5851 5847 5843 5841 5836 5832 5828 5821 5816 5812 5809 5805 5803 5801 5798 5796 5794 5790 5784 5780 5775 5769 5764 5762 5760 5758 5756 5756 5756 5755
5855 5855 5856 5855 5856 5855 5855 5856 5857 5857 5856 5854 5851 5850 5842 5840 5837 5833 5829 5823 5817 5811 5806 5804 5800 5796 5791 5787 5781 5777 5773 5770 5766 5762 5758 5754 5749 5746 5745 5743 5741 5742 5742 5742
5851 5853 5852 5852 5851 5853 5853 5853 5852 5853 5853 5848 5846 5842 5838 5833 5829 5824 5818 5811 5807 5802 5798 5796 5791 5786 5779 5773 5765 5759 5756 5751 5748 5743 5740 5737 5735 5730 5727 5727 5727 5726 5728 5729
5847 5848 5848 5848 5849 5850 5848 5849 5849 5847 5845 5843 5839 5836 5832 5828 5822 5816 5809 5804 5800 5794 5789 5784 5780 5775 5769 5763 5757 5749 5742 5734 5730 5726 5723 5719 5718 5714 5709 5710 5709 5710 5712 5714
5843 5844 5845 5844 5845 5846 5846 5844 5844 5842 5839 5837 5833 5827 5822 5818 5814 5809 5805 5801 5795 5789 5784 5778 5772 5766 5760 5753 5745 5739 5734 5727 5720 5713 5706 5702 5702 5700 5695 5694 5693 5694 5695 5698
5840 5841 5842 5842 5841 5842 5840 5839 5838 5835 5833 5830 5825 5821 5816 5813 5808 5802 5799 5794 5787 5782 5776 5769 5762 5755 5749 5742 5736 5729 5722 5717 5710 5703 5692 5685 5688 5685 5683 5680 5681 5680 5680 5681
5835 5837 5836 5838 5839 5837 5834 5832 5831 5829 5826 5824 5818 5813 5808 5805 5800 5796 5792 5787 5781 5776 5769 5761 5753 5746 5738 5733 5727 5719 5712 5706 5699 5692 5682 5673 5671 5671 5668 5666 5665 5663 5665 5666
5832 5833 5834 5833 5833 5832 5829 5826 5824 5818 5815 5812 5809 5805 5801 5795 5790 5785 5780 5774 5770 5764 5759 5751 5743 5735 5728 5722 5715 5707 5701 5695 5688 5681 5671 5664 5659 5658 5656 5656 5654 5653 5651 5653
5828 5829 5827 5826 5827 5825 5822 5821 5816 5810 5806 5802 5799 5796 5791 5787 5778 5772 5769 5764 5756 5749 5743 5738 5733 5727 5720 5712 5704 5696 5689 5682 5677 5670 5665 5657 5652 5647 5645 5646 5644 5641 5640 5641
5825 5826 5823 5822 5820 5816 5814 5813 5810 5805 5799 5795 5792 5786 5779 5778 5771 5765 5761 5755 5748 5742 5735 5729 5724 5719 5712 5703 5692 5684 5678 5672 5665 5659 5652 5650 5645 5639 5634 5637 5633 5631 5630 5630
5820 5820 5822 5818 5813 5811 5810 5804 5799 5796 5792 5785 5779 5779 5774 5768 5763 5759 5755 5748 5739 5732 5726 5720 5715 5710 5703 5693 5684 5676 5668 5661 5653 5647 5641 5637 5635 5631 5630 5628 5625 5623 5621 5621
5815 5811 5811 5812 5808 5803 5800 5797 5793 5788 5785 5780 5774 5771 5766 5756 5753 5749 5742 5736 5729 5723 5715 5709 5702 5697 5692 5681 5674 5667 5658 5651 5643 5635 5629 5625 5622 5622 5621 5618 5616 5614 5613 5613
5806 5803 5800 5802 5798 5795 5792 5790 5785 5779 5775 5772 5763 5760 5750 5746 5742 5737 5732 5725 5719 5712 5705 5697 5691 5685 5679 5672 5664 5655 5647 5640 5632 5625 5618 5612 5609 5611 5611 5609 5608 5606 5605 5604
5796 5793 5791 5790 5787 5784 5784 5780 5773 5768 5764 5760 5757 5751 5745 5739 5734 5729 5722 5715 5709 5702 5694 5688 5683 5676 5670 5662 5653 5646 5636 5629 5621 5613 5607 5602 5599 5599 5600 5599 5598 5597 5596 5596
5790 5787 5785 5782 5779 5777 5776 5771 5768 5764 5759 5751 5749 5743 5737 5731 5725 5718 5711 5705 5698 5691 5685 5679 5673 5668 5661 5653 5645 5634 5626 5616 5608 5601 5597 5594 5591 5589 5589 5588 5587 5586 5586 5587
5783 5781 5778 5778 5772 5771 5769 5761 5760 5756 5749 5743 5740 5735 5729 5723 5715 5708 5702 5696 5690 5683 5676 5670 5665 5659 5652 5645 5635 5623 5615 5607 5600 5595 5592 5588 5586 5583 5582 5581 5580 5578 5577 5578
5773 5772 5771 5771 5768 5766 5762 5755 5752 5748 5742 5737 5732 5727 5722 5716 5708 5701 5694 5686 5680 5673 5667 5661 5655 5650 5643 5636 5625 5617 5609 5601 5596 5593 5589 5585 5583 5580 5578 5576 5574 5574 5575 5576
5766 5764 5761 5759 5757 5757 5753 5748 5742 5738 5733 5729 5723 5717 5712 5705 5697 5689 5682 5676 5670 5664 5658 5651 5646 5640 5634 5626 5619 5613 5606 5599 5595 5591 5587 5584 5581 5577 5575 5573 5572 5572 5573 5574
5762 5759 5756 5753 5749 5748 5745 5739 5736 5730 5727 5721 5716 5710 5705 5697 5690 5683 5673 5666 5660 5655 5648 5643 5636 5630 5624 5618 5614 5609 5604 5599 5595 5591 5588 5585 5582 5579 5576 5575 5573 5573 5572 5572
5755 5753 5751 5746 5741 5739 5735 5731 5726 5720 5716 5710 5705 5699 5692 5685 5678 5675 5666 5660 5654 5646 5641 5635 5629 5622 5616 5611 5610 5607 5603 5599 5597 5593 5590 5587 5583 5580 5578 5576 5575 5573 5571 5571
5745 5742 5740 5735 5732 5730 5722 5720 5716 5711 5709 5702 5697 5690 5683 5675 5669 5663 5658 5653 5645 5640 5634 5629 5623 5617 5612 5609 5608 5606 5603 5600 5597 5595 5591 5587 5584 5581 5578 5575 5571 5569 5567 5565
5738 5734 5730 5727 5724 5720 5715 5711 5707 5703 5697 5693 5687 5678 5672 5666 5660 5654 5649 5644 5638 5634 5629 5625 5619 5615 5611 5609 5608 5605 5603 5601 5598 5595 5592 5588 5585 5581 5576 5572 5569 5566 5563 5560
5730 5726 5722 5719 5716 5710 5707 5702 5698 5694 5689 5682 5675 5668 5661 5656 5650 5645 5640 5635 5631 5627 5624 5620 5617 5614 5611 5610 5609 5606 5604 5602 5599 5596 5593 5589 5585 5580 5577 5573 5569 5567 5564 5562
5724 5720 5716 5712 5710 5704 5700 5694 5690 5685 5679 5673 5666 5659 5652 5646 5641 5635 5630 5626 5624 5621 5620 5617 5615 5613 5613 5611 5610 5609 5607 5604 5601 5598 5594 5590 5586 5583 5578 5575 5571 5567 5564 5561
5715 5711 5708 5705 5701 5697 5692 5686 5682 5677 5671 5664 5658 5650 5644 5638 5631 5625 5621 5619 5618 5618 5617 5616 5615 5614 5614 5614 5613 5612 5610 5607 5603 5600 5598 5593 5589 5585 5580 5576 5571 5566 5562 5559
5704 5701 5699 5696 5692 5688 5684 5680 5676 5670 5663 5656 5650 5644 5638 5631 5624 5618 5615 5616 5616 5616 5615 5616 5616 5617 5617 5617 5617 5616 5614 5610 5607 5604 5600 5597 5592 5587 5582 5576 5569 5564 5560 5557